Regional Weather Roundup
Issued by NWS

Home | Current Version | Previous Version | Graphics & Text | Print | Product List | Glossary On
Versions: 1 2 3 4 5 6 7 8 9 10 11 12 13 14 15 16 17 18 19 20 21 22 23 24 25 26 27 28 29 30 31 32 33 34 35 36 37 38 39 40 41 42 43 44 45 46 47 48 49 50
000
ASUS43 KLMK 252110
RWRKY
KENTUCKY REGIONAL WEATHER ROUNDUP
NATIONAL WEATHER SERVICE LOUISVILLE KY
500 PM EDT WED MAY 25 2016

NOTE "FAIR" INDICATES FEW OR NO CLOUDS BELOW 12,000 FEET
WITH NO SIGNIFICANT WEATHER AND/OR OBSTRUCTIONS TO VISIBILITY.

KYZ001>023-026-027-061>063-070>075-252200-
WESTERN AND SOUTH CENTRAL KENTUCKY

CITY           SKY/WX    TMP DP  RH WIND       PRES   REMARKS
PADUCAH        CLOUDY    76  68  76 S7        30.02F
HENDERSON      CLOUDY    72  64  78 SE13      30.03F
OWENSBORO      CLOUDY    73  67  81 S20       30.09S
HOPKINSVILLE   CLOUDY    69  69 100 E8        30.09F
BOWLING GREEN  TSTM      72  69  90 NW14G22   30.17R VSB 1
GLASGOW        RAIN      71  69  92 CALM      30.14R
$$

KYZ024-025-028>034-038-045-046-053-252200-
NORTH CENTRAL KENTUCKY

CITY           SKY/WX    TMP DP  RH WIND       PRES   REMARKS
LOUISVILLE/SDF CLOUDY    82  63  52 S12       30.06F
LOUISVILLE/LOU CLOUDY    81  64  56 SW10G20   30.07F
FORT KNOX      MOSUNNY   80  65  60 S10       30.07F
$$

KYZ035>037-039>044-047>052-055>060-089>105-252200-
NORTHEAST KENTUCKY

CITY           SKY/WX    TMP DP  RH WIND       PRES   REMARKS
LEXINGTON      CLOUDY    81  61  50 SW15G21   30.11F
COVINGTON      CLOUDY    81  62  52 S10G20    30.07F
FRANKFORT      CLOUDY    81  61  50 SW15      30.09S
$$

KYZ054-064>069-076>088-106>120-252200-
SOUTHEAST KENTUCKY

CITY           SKY/WX    TMP DP  RH WIND       PRES   REMARKS
JACKSON        CLOUDY    79  59  50 VRB6      30.15F
LONDON         PTSUNNY   73  64  73 S5        30.17F
SOMERSET       CLOUDY    75  61  60 S3        30.15F
MIDDLESBORO    CLOUDY    80  59  47 SW5       30.18S
MONTICELLO     CLOUDY    79  63  57 VRB6      30.16F
$$





USA.gov is the U.S. government's official web portal to all federal, state and local government web resources and services.